User: anonymous   Login
Location: Unspecified
(0.0000°N, 0.0000°E)
Time: 00:03:56
(UTC+00:00)
Language:

Hamsat - Orbit

View from above orbital plane
View from above orbital plane
View from above satellite
View from above satellite

Ground track
Ground track

The orbit data is extracted from the following two-line orbital elements,

1 28650U 05017B   17172.92733863 +.00000262 +00000-0 +33637-4 0  9999
2 28650 097.6511 147.1037 0024978 113.3537 247.0311 14.88674844656805
Epoch (UTC): 21 June 2017 22:15:22
Eccentricity: 0.0024978
inclination: 97.6511°
perigee height: 584 km
apogee height: 619 km
right ascension of ascending node: 147.1037°
argument of perigee: 113.3537°
revolutions per day: 14.88674844
mean anomaly at epoch: 247.0311°
orbit number at epoch: 65680

The dashed part of the orbit path shows where the satellite is in the earth's shadow,  

DLR